Find Kosmos-1989

NORAD ID: 19751 Int'l Des: 1989-001 Owner: NPOPM Country: SU operational
MEOCIRCULAR

Current View

Loading 3D Globe...

About Kosmos-1989

Description loading...

Upcoming Passes

Passes for default location (London). Set your location on the main map for personalized predictions.

Altitude History

Loading altitude history...

Two-Line Element Set

1 19751U 89001C 26148.23145851 -.00000062 00000-0 00000+0 0 9999
2 19751 64.9347 72.8776 0023341 217.6127 274.1275 2.13156052290941
Epoch: May 28, 2026 • Age: 45 hours

Current Status

Altitude 19144.8 km
Velocity 3.95 km/s
Sub-Earth Point 54.24°N, 66.98°W
Launch Date Jan 10, 1989
Age 37.3 years
Type other

Technical Details

Classification Payload
Mass 1230.00 kg
Dry Mass 1230.00 kg
Total Mass 1230.00 kg
Length 1.30 m
Diameter 1.30 m
Span 1.30 m
Shape Sphere
Manufacturer OAZ
Bus Type Etalon
Phase Status In Orbit
Owner/State NPOPM/SU

Most Searched